Location: Fauquembergues
(50.6005°N, 2.0987°E)
Time: 08:23:36
(UTC+00:00)

Cosmos 2251 Rocket - Pass Details

Date: 14 July 2020
Orbit: 764 x 792 km, 74.0° (Epoch: 14 August)

Event Time Altitude Azimuth Distance (km) Brightness Sun altitude
Exits shadow 01:32:35 18° 234° (SW) 1,810 4.9 -14.8°
Maximum altitude 01:36:13 46° 301° (WNW) 1,020 4.2 -14.6°
Drops below altitude 10° 01:41:17 10° 15° (NNE) 2,319 7.4 -14.2°
Sets 01:43:47 0° 22° (NNE) 3,253 8.7 -14.1°
